Year,Month,Day,Hour,Minute,Value (Times are PST for temperature in C)
2019,08,12,00,00,16.20
2019,08,12,00,01,16.20
2019,08,12,00,02,16.20
2019,08,12,00,03,16.20
2019,08,12,00,04,16.20
2019,08,12,00,05,16.20
2019,08,12,00,06,16.20
2019,08,12,00,07,16.20
2019,08,12,00,08,16.20
2019,08,12,00,09,16.20
2019,08,12,00,10,16.20
2019,08,12,00,11,16.10
2019,08,12,00,12,16.10
2019,08,12,00,13,16.10
2019,08,12,00,14,16.10
2019,08,12,00,15,16.10
2019,08,12,00,16,16.10
2019,08,12,00,17,16.10
2019,08,12,00,18,16.10
2019,08,12,00,19,16.10
2019,08,12,00,20,16.10
2019,08,12,00,21,16.10
2019,08,12,00,22,16.10
2019,08,12,00,23,16.10
2019,08,12,00,24,16.10
2019,08,12,00,25,16.10
2019,08,12,00,26,16.10
2019,08,12,00,27,16.10
2019,08,12,00,28,16.10
2019,08,12,00,29,16.10
2019,08,12,00,30,16.10
2019,08,12,00,31,16.10
2019,08,12,00,32,16.10
2019,08,12,00,33,16.00
2019,08,12,00,34,16.00
2019,08,12,00,35,16.00
2019,08,12,00,36,16.00
2019,08,12,00,37,16.00
2019,08,12,00,38,15.90
2019,08,12,00,39,15.90
2019,08,12,00,40,15.90
2019,08,12,00,41,15.90
2019,08,12,00,42,15.90
2019,08,12,00,43,15.90
2019,08,12,00,44,15.90
2019,08,12,00,45,15.80
2019,08,12,00,46,15.80
2019,08,12,00,47,15.80
2019,08,12,00,48,15.80
2019,08,12,00,49,15.80
2019,08,12,00,50,15.80
2019,08,12,00,51,15.80
2019,08,12,00,52,15.70
2019,08,12,00,53,15.70
2019,08,12,00,54,15.70
2019,08,12,00,55,15.60
2019,08,12,00,56,15.60
2019,08,12,00,57,15.50
2019,08,12,00,58,15.50
2019,08,12,00,59,15.40
2019,08,12,01,00,15.40
2019,08,12,01,01,15.40
2019,08,12,01,02,15.40
2019,08,12,01,03,15.40
2019,08,12,01,04,15.30
2019,08,12,01,05,15.30
2019,08,12,01,06,15.30
2019,08,12,01,07,15.30
2019,08,12,01,08,15.30
2019,08,12,01,09,15.30
2019,08,12,01,10,15.30
2019,08,12,01,11,15.30
2019,08,12,01,12,15.30
2019,08,12,01,13,15.30
2019,08,12,01,14,15.30
2019,08,12,01,15,15.30
2019,08,12,01,16,15.30
2019,08,12,01,17,15.30
2019,08,12,01,18,15.30
2019,08,12,01,19,15.30
2019,08,12,01,20,15.30
2019,08,12,01,21,15.30
2019,08,12,01,22,15.30
2019,08,12,01,23,15.30
2019,08,12,01,24,15.30
2019,08,12,01,25,15.30
2019,08,12,01,26,15.30
2019,08,12,01,27,15.20
2019,08,12,01,28,15.20
2019,08,12,01,29,15.20
2019,08,12,01,30,15.20
2019,08,12,01,31,15.20
2019,08,12,01,32,15.20
2019,08,12,01,33,15.20
2019,08,12,01,34,15.20
2019,08,12,01,35,15.10
2019,08,12,01,36,15.10
2019,08,12,01,37,15.10
2019,08,12,01,38,15.10
2019,08,12,01,39,15.10
2019,08,12,01,40,15.10
2019,08,12,01,41,15.10
2019,08,12,01,42,15.10
2019,08,12,01,43,15.10
2019,08,12,01,44,15.20
2019,08,12,01,45,15.20
2019,08,12,01,46,15.20
2019,08,12,01,47,15.20
2019,08,12,01,48,15.20
2019,08,12,01,49,15.20
2019,08,12,01,50,15.20
2019,08,12,01,51,15.20
2019,08,12,01,52,15.20
2019,08,12,01,53,15.20
2019,08,12,01,54,15.20
2019,08,12,01,55,15.20
2019,08,12,01,56,15.20
2019,08,12,01,57,15.20
2019,08,12,01,58,15.20
2019,08,12,01,59,15.20
2019,08,12,02,00,15.20
2019,08,12,02,01,15.20
2019,08,12,02,02,15.30
2019,08,12,02,03,15.30
2019,08,12,02,04,15.30
2019,08,12,02,05,15.30
2019,08,12,02,06,15.30
2019,08,12,02,07,15.40
2019,08,12,02,08,15.40
2019,08,12,02,09,15.40
2019,08,12,02,10,15.40
2019,08,12,02,11,15.40
2019,08,12,02,12,15.50
2019,08,12,02,13,15.50
2019,08,12,02,14,15.50
2019,08,12,02,15,15.50
2019,08,12,02,16,15.60
2019,08,12,02,17,15.60
2019,08,12,02,18,15.60
2019,08,12,02,19,15.60
2019,08,12,02,20,15.60
2019,08,12,02,21,15.60
2019,08,12,02,22,15.60
2019,08,12,02,23,15.60
2019,08,12,02,24,15.60
2019,08,12,02,25,15.70
2019,08,12,02,26,15.70
2019,08,12,02,27,15.70
2019,08,12,02,28,15.70
2019,08,12,02,29,15.70
2019,08,12,02,30,15.70
2019,08,12,02,31,15.70
2019,08,12,02,32,15.70
2019,08,12,02,33,15.70
2019,08,12,02,34,15.70
2019,08,12,02,35,15.70
2019,08,12,02,36,15.70
2019,08,12,02,37,15.70
2019,08,12,02,38,15.70
2019,08,12,02,39,15.70
2019,08,12,02,40,15.70
2019,08,12,02,41,15.80
2019,08,12,02,42,15.80
2019,08,12,02,43,15.80
2019,08,12,02,44,15.80
2019,08,12,02,45,15.80
2019,08,12,02,46,15.80
2019,08,12,02,47,15.80
2019,08,12,02,48,15.80
2019,08,12,02,49,15.90
2019,08,12,02,50,15.90
2019,08,12,02,51,15.90
2019,08,12,02,52,15.90
2019,08,12,02,53,15.90
2019,08,12,02,54,15.90
2019,08,12,02,55,15.90
2019,08,12,02,56,15.90
2019,08,12,02,57,16.00
2019,08,12,02,58,16.00
2019,08,12,02,59,16.00
2019,08,12,03,00,16.00
2019,08,12,03,01,16.00
2019,08,12,03,02,16.00
2019,08,12,03,03,16.00
2019,08,12,03,04,16.00
2019,08,12,03,05,16.10
2019,08,12,03,06,16.10
2019,08,12,03,07,16.10
2019,08,12,03,08,16.10
2019,08,12,03,09,16.10
2019,08,12,03,10,16.10
2019,08,12,03,11,16.10
2019,08,12,03,12,16.10
2019,08,12,03,13,16.10
2019,08,12,03,14,16.10
2019,08,12,03,15,16.10
2019,08,12,03,16,16.10
2019,08,12,03,17,16.10
2019,08,12,03,18,16.10
2019,08,12,03,19,16.10
2019,08,12,03,20,16.10
2019,08,12,03,21,16.10
2019,08,12,03,22,16.10
2019,08,12,03,23,16.10
2019,08,12,03,24,16.10
2019,08,12,03,25,16.10
2019,08,12,03,26,16.10
2019,08,12,03,27,16.10
2019,08,12,03,28,16.10
2019,08,12,03,29,16.10
2019,08,12,03,30,16.10
2019,08,12,03,31,16.10
2019,08,12,03,32,16.10
2019,08,12,03,33,16.10
2019,08,12,03,34,16.00
2019,08,12,03,35,16.00
2019,08,12,03,36,16.00
2019,08,12,03,37,16.00
2019,08,12,03,38,16.00
2019,08,12,03,39,16.00
2019,08,12,03,40,16.00
2019,08,12,03,41,16.00
2019,08,12,03,42,15.90
2019,08,12,03,43,15.90
2019,08,12,03,44,15.90
2019,08,12,03,45,15.90
2019,08,12,03,46,15.90
2019,08,12,03,47,15.90
2019,08,12,03,48,15.90
2019,08,12,03,49,15.90
2019,08,12,03,50,15.80
2019,08,12,03,51,15.80
2019,08,12,03,52,15.80
2019,08,12,03,53,15.80
2019,08,12,03,54,15.80
2019,08,12,03,55,15.80
2019,08,12,03,56,15.80
2019,08,12,03,57,15.80
2019,08,12,03,58,15.80
2019,08,12,03,59,15.70
2019,08,12,04,00,15.70
2019,08,12,04,01,15.70
2019,08,12,04,02,15.70
2019,08,12,04,03,15.60
2019,08,12,04,04,15.60
2019,08,12,04,05,15.50
2019,08,12,04,06,15.50
2019,08,12,04,07,15.40
2019,08,12,04,08,15.40
2019,08,12,04,09,15.40
2019,08,12,04,10,15.30
2019,08,12,04,11,15.30
2019,08,12,04,12,15.30
2019,08,12,04,13,15.30
2019,08,12,04,14,15.30
2019,08,12,04,15,15.30
2019,08,12,04,16,15.30
2019,08,12,04,17,15.30
2019,08,12,04,18,15.30
2019,08,12,04,19,15.30
2019,08,12,04,20,15.20
2019,08,12,04,21,15.20
2019,08,12,04,22,15.20
2019,08,12,04,23,15.20
2019,08,12,04,24,15.20
2019,08,12,04,25,15.20
2019,08,12,04,26,15.20
2019,08,12,04,27,15.20
2019,08,12,04,28,15.20
2019,08,12,04,29,15.20
2019,08,12,04,30,15.20
2019,08,12,04,31,15.20
2019,08,12,04,32,15.20
2019,08,12,04,33,15.20
2019,08,12,04,34,15.20
2019,08,12,04,35,15.20
2019,08,12,04,36,15.10
2019,08,12,04,37,15.10
2019,08,12,04,38,15.10
2019,08,12,04,39,15.10
2019,08,12,04,40,15.10
2019,08,12,04,41,15.00
2019,08,12,04,42,15.00
2019,08,12,04,43,15.00
2019,08,12,04,44,15.00
2019,08,12,04,45,15.00
2019,08,12,04,46,15.00
2019,08,12,04,47,14.90
2019,08,12,04,48,14.90
2019,08,12,04,49,14.90
2019,08,12,04,50,14.90
2019,08,12,04,51,14.90
2019,08,12,04,52,15.00
2019,08,12,04,53,15.00
2019,08,12,04,54,15.00
2019,08,12,04,55,15.00
2019,08,12,04,56,15.00
2019,08,12,04,57,15.00
2019,08,12,04,58,15.00
2019,08,12,04,59,15.00
2019,08,12,05,00,14.90
2019,08,12,05,01,14.90
2019,08,12,05,02,14.90
2019,08,12,05,03,14.90
2019,08,12,05,04,14.90
2019,08,12,05,05,14.90
2019,08,12,05,06,14.90
2019,08,12,05,07,14.90
2019,08,12,05,08,14.80
2019,08,12,05,09,14.80
2019,08,12,05,10,14.80
2019,08,12,05,11,14.80
2019,08,12,05,12,14.80
2019,08,12,05,13,14.70
2019,08,12,05,14,14.70
2019,08,12,05,15,14.70
2019,08,12,05,16,14.60
2019,08,12,05,17,14.60
2019,08,12,05,18,14.60
2019,08,12,05,19,14.60
2019,08,12,05,20,14.60
2019,08,12,05,21,14.60
2019,08,12,05,22,14.60
2019,08,12,05,23,14.60
2019,08,12,05,24,14.50
2019,08,12,05,25,14.50
2019,08,12,05,26,14.50
2019,08,12,05,27,14.50
2019,08,12,05,28,14.50
2019,08,12,05,29,14.50
2019,08,12,05,30,14.50
2019,08,12,05,31,14.40
2019,08,12,05,32,14.40
2019,08,12,05,33,14.40
2019,08,12,05,34,14.40
2019,08,12,05,35,14.40
2019,08,12,05,36,14.40
2019,08,12,05,37,14.40
2019,08,12,05,38,14.40
2019,08,12,05,39,14.40
2019,08,12,05,40,14.40
2019,08,12,05,41,14.40
2019,08,12,05,42,14.40
2019,08,12,05,43,14.40
2019,08,12,05,44,14.40
2019,08,12,05,45,14.40
2019,08,12,05,46,14.40
2019,08,12,05,47,14.40
2019,08,12,05,48,14.40
2019,08,12,05,49,14.40
2019,08,12,05,50,14.40
2019,08,12,05,51,14.40
2019,08,12,05,52,14.40
2019,08,12,05,53,14.40
2019,08,12,05,54,14.40
2019,08,12,05,55,14.40
2019,08,12,05,56,14.40
2019,08,12,05,57,14.40
2019,08,12,05,58,14.40
2019,08,12,05,59,14.40
2019,08,12,06,00,14.40
2019,08,12,06,01,14.40
2019,08,12,06,02,14.40
2019,08,12,06,03,14.40
2019,08,12,06,04,14.30
2019,08,12,06,05,14.30
2019,08,12,06,06,14.30
2019,08,12,06,07,14.30
2019,08,12,06,08,14.30
2019,08,12,06,09,14.30
2019,08,12,06,10,14.30
2019,08,12,06,11,14.30
2019,08,12,06,12,14.20
2019,08,12,06,13,14.20
2019,08,12,06,14,14.20
2019,08,12,06,15,14.20
2019,08,12,06,16,14.30
2019,08,12,06,17,14.30
2019,08,12,06,18,14.20
2019,08,12,06,19,14.20
2019,08,12,06,20,14.20
2019,08,12,06,21,14.20
2019,08,12,06,22,14.20
2019,08,12,06,23,14.20
2019,08,12,06,24,14.20
2019,08,12,06,25,14.20
2019,08,12,06,26,14.20
2019,08,12,06,27,14.20
2019,08,12,06,28,14.20
2019,08,12,06,29,14.20
2019,08,12,06,30,14.20
2019,08,12,06,31,14.20
2019,08,12,06,32,14.20
2019,08,12,06,33,14.20
2019,08,12,06,34,14.20
2019,08,12,06,35,14.20
2019,08,12,06,36,14.20
2019,08,12,06,37,14.20
2019,08,12,06,38,14.20
2019,08,12,06,39,14.20
2019,08,12,06,40,14.20
2019,08,12,06,41,14.20
2019,08,12,06,42,14.20
2019,08,12,06,43,14.20
2019,08,12,06,44,14.20
2019,08,12,06,45,14.10
2019,08,12,06,46,14.10
2019,08,12,06,47,14.10
2019,08,12,06,48,14.10
2019,08,12,06,49,14.10
2019,08,12,06,50,14.10
2019,08,12,06,51,14.10
2019,08,12,06,52,14.10
2019,08,12,06,53,14.20
2019,08,12,06,54,14.20
2019,08,12,06,55,14.20
2019,08,12,06,56,14.20
2019,08,12,06,57,14.20
2019,08,12,06,58,14.20
2019,08,12,06,59,14.20
2019,08,12,07,00,14.20
2019,08,12,07,01,14.20
2019,08,12,07,02,14.20
2019,08,12,07,03,14.20
2019,08,12,07,04,14.20
2019,08,12,07,05,14.20
2019,08,12,07,06,14.30
2019,08,12,07,07,14.30
2019,08,12,07,08,14.30
2019,08,12,07,09,14.30
2019,08,12,07,10,14.30
2019,08,12,07,11,14.30
2019,08,12,07,12,14.30
2019,08,12,07,13,14.30
2019,08,12,07,14,14.30
2019,08,12,07,15,14.30
2019,08,12,07,16,14.30
2019,08,12,07,17,14.30
2019,08,12,07,18,14.30
2019,08,12,07,19,14.30
2019,08,12,07,20,14.30
2019,08,12,07,21,14.40
2019,08,12,07,22,14.40
2019,08,12,07,23,14.40
2019,08,12,07,24,14.40
2019,08,12,07,25,14.40
2019,08,12,07,26,14.40
2019,08,12,07,27,14.40
2019,08,12,07,28,14.40
2019,08,12,07,29,14.40
2019,08,12,07,30,14.40
2019,08,12,07,31,14.40
2019,08,12,07,32,14.50
2019,08,12,07,33,14.50
2019,08,12,07,34,14.50
2019,08,12,07,35,14.50
2019,08,12,07,36,14.50
2019,08,12,07,37,14.60
2019,08,12,07,38,14.60
2019,08,12,07,39,14.60
2019,08,12,07,40,14.60
2019,08,12,07,41,14.60
2019,08,12,07,42,14.60
2019,08,12,07,43,14.70
2019,08,12,07,44,14.70
2019,08,12,07,45,14.70
2019,08,12,07,46,14.70
2019,08,12,07,47,14.80
2019,08,12,07,48,14.80
2019,08,12,07,49,14.80
2019,08,12,07,50,14.80
2019,08,12,07,51,14.80
2019,08,12,07,52,14.90
2019,08,12,07,53,14.90
2019,08,12,07,54,14.90
2019,08,12,07,55,15.00
2019,08,12,07,56,15.00
2019,08,12,07,57,15.00
2019,08,12,07,58,15.10
2019,08,12,07,59,15.10
2019,08,12,08,00,15.10
2019,08,12,08,01,15.20
2019,08,12,08,02,15.20
2019,08,12,08,03,15.20
2019,08,12,08,04,15.30
2019,08,12,08,05,15.30
2019,08,12,08,06,15.30
2019,08,12,08,07,15.30
2019,08,12,08,08,15.30
2019,08,12,08,09,15.30
2019,08,12,08,10,15.40
2019,08,12,08,11,15.40
2019,08,12,08,12,15.40
2019,08,12,08,13,15.40
2019,08,12,08,14,15.40
2019,08,12,08,15,15.40
2019,08,12,08,16,15.40
2019,08,12,08,17,15.40
2019,08,12,08,18,15.40
2019,08,12,08,19,15.40
2019,08,12,08,20,15.40
2019,08,12,08,21,15.40
2019,08,12,08,22,15.40
2019,08,12,08,23,15.50
2019,08,12,08,24,15.50
2019,08,12,08,25,15.50
2019,08,12,08,26,15.60
2019,08,12,08,27,15.60
2019,08,12,08,28,15.70
2019,08,12,08,29,15.80
2019,08,12,08,30,15.80
2019,08,12,08,31,15.90
2019,08,12,08,32,15.90
2019,08,12,08,33,15.90
2019,08,12,08,34,16.00
2019,08,12,08,35,16.00
2019,08,12,08,36,16.10
2019,08,12,08,37,16.10
2019,08,12,08,38,16.10
2019,08,12,08,39,16.10
2019,08,12,08,40,16.10
2019,08,12,08,41,16.20
2019,08,12,08,42,16.20
2019,08,12,08,43,16.20
2019,08,12,08,44,16.20
2019,08,12,08,45,16.20
2019,08,12,08,46,16.20
2019,08,12,08,47,16.20
2019,08,12,08,48,16.20
2019,08,12,08,49,16.20
2019,08,12,08,50,16.20
2019,08,12,08,51,16.20
2019,08,12,08,52,16.20
2019,08,12,08,53,16.20
2019,08,12,08,54,16.20
2019,08,12,08,55,16.20
2019,08,12,08,56,16.30
2019,08,12,08,57,16.30
2019,08,12,08,58,16.30
2019,08,12,08,59,16.30
2019,08,12,09,00,16.30
2019,08,12,09,01,16.40
2019,08,12,09,02,16.40
2019,08,12,09,03,16.50
2019,08,12,09,04,16.50
2019,08,12,09,05,16.60
2019,08,12,09,06,16.60
2019,08,12,09,07,16.70
2019,08,12,09,08,16.70
2019,08,12,09,09,16.80
2019,08,12,09,10,16.80
2019,08,12,09,11,16.90
2019,08,12,09,12,16.90
2019,08,12,09,13,17.00
2019,08,12,09,14,17.00
2019,08,12,09,15,17.10
2019,08,12,09,16,17.20
2019,08,12,09,17,17.20
2019,08,12,09,18,17.20
2019,08,12,09,19,17.30
2019,08,12,09,20,17.30
2019,08,12,09,21,17.40
2019,08,12,09,22,17.40
2019,08,12,09,23,17.40
2019,08,12,09,24,17.50
2019,08,12,09,25,17.50
2019,08,12,09,26,17.60
2019,08,12,09,27,17.60
2019,08,12,09,28,17.60
2019,08,12,09,29,17.60
2019,08,12,09,30,17.70
2019,08,12,09,31,17.70
2019,08,12,09,32,17.80
2019,08,12,09,33,17.90
2019,08,12,09,34,18.00
2019,08,12,09,35,18.00
2019,08,12,09,36,18.10
2019,08,12,09,37,18.20
2019,08,12,09,38,18.20
2019,08,12,09,39,18.30
2019,08,12,09,40,18.30
2019,08,12,09,41,18.40
2019,08,12,09,42,18.50
2019,08,12,09,43,18.50
2019,08,12,09,44,18.60
2019,08,12,09,45,18.60
2019,08,12,09,46,18.60
2019,08,12,09,47,18.70
2019,08,12,09,48,18.70
2019,08,12,09,49,18.70
2019,08,12,09,50,18.70
2019,08,12,09,51,18.70
2019,08,12,09,52,18.70
2019,08,12,09,53,18.70
2019,08,12,09,54,18.70
2019,08,12,09,55,18.80
2019,08,12,09,56,18.80
2019,08,12,09,57,18.80
2019,08,12,09,58,18.90
2019,08,12,09,59,18.90
2019,08,12,10,00,18.90
2019,08,12,10,01,18.90
2019,08,12,10,02,18.90
2019,08,12,10,03,18.90
2019,08,12,10,04,18.90
2019,08,12,10,05,18.90
2019,08,12,10,06,18.90
2019,08,12,10,07,18.90
2019,08,12,10,08,18.90
2019,08,12,10,09,18.90
2019,08,12,11,17,21.20
2019,08,12,11,18,21.20
2019,08,12,11,19,21.20
2019,08,12,11,20,21.20
2019,08,12,11,21,21.20
2019,08,12,11,22,21.20
2019,08,12,11,23,21.30
2019,08,12,11,24,21.30
2019,08,12,11,25,21.30
2019,08,12,11,26,21.30
2019,08,12,11,27,21.20
2019,08,12,11,28,21.20
2019,08,12,11,29,21.10
2019,08,12,11,30,21.10
2019,08,12,11,31,21.20
2019,08,12,11,32,21.20
2019,08,12,11,33,21.20
2019,08,12,11,34,21.20
2019,08,12,11,35,21.20
2019,08,12,11,36,21.30
2019,08,12,11,37,21.30
2019,08,12,11,38,21.30
2019,08,12,11,39,21.40
2019,08,12,11,40,21.40
2019,08,12,11,41,21.50
2019,08,12,11,42,21.50
2019,08,12,11,43,21.60
2019,08,12,11,44,21.60
2019,08,12,11,45,21.60
2019,08,12,11,46,21.60
2019,08,12,11,47,21.50
2019,08,12,11,48,21.40
2019,08,12,11,49,21.50
2019,08,12,11,50,21.50
2019,08,12,11,51,21.60
2019,08,12,11,52,21.70
2019,08,12,11,53,21.80
2019,08,12,11,54,21.80
2019,08,12,11,55,21.80
2019,08,12,11,56,21.80
2019,08,12,11,57,21.70
2019,08,12,11,58,21.70
2019,08,12,11,59,21.60
2019,08,12,12,00,21.60
2019,08,12,12,01,21.60
2019,08,12,12,02,21.50
2019,08,12,12,03,21.50
2019,08,12,12,04,21.50
2019,08,12,12,05,21.50
2019,08,12,12,06,21.50
2019,08,12,12,07,21.50
2019,08,12,12,08,21.60
2019,08,12,12,09,21.60
2019,08,12,12,10,21.60
2019,08,12,12,11,21.60
2019,08,12,12,12,21.60
2019,08,12,12,13,21.50
2019,08,12,12,14,21.50
2019,08,12,12,15,21.50
2019,08,12,12,16,21.50
2019,08,12,12,17,21.50
2019,08,12,12,18,21.40
2019,08,12,12,19,21.40
2019,08,12,12,20,21.40
2019,08,12,12,21,21.30
2019,08,12,12,22,21.20
2019,08,12,12,23,21.20
2019,08,12,12,24,21.20
2019,08,12,12,25,21.20
2019,08,12,12,26,21.20
2019,08,12,12,27,21.30
2019,08,12,12,28,21.30
2019,08,12,12,29,21.20
2019,08,12,12,30,21.20
2019,08,12,12,31,21.20
2019,08,12,12,32,21.20
2019,08,12,12,33,21.30
2019,08,12,12,34,21.40
2019,08,12,12,35,21.50
2019,08,12,12,36,21.60
2019,08,12,12,37,21.70
2019,08,12,12,38,21.80
2019,08,12,12,39,21.80
2019,08,12,12,40,21.80
2019,08,12,12,41,21.90
2019,08,12,12,42,21.90
2019,08,12,12,43,21.90
2019,08,12,12,44,22.00
2019,08,12,12,45,22.10
2019,08,12,12,46,22.10
2019,08,12,12,47,22.10
2019,08,12,12,48,22.10
2019,08,12,12,49,22.10
2019,08,12,12,50,22.20
2019,08,12,12,51,22.30
2019,08,12,12,52,22.30
2019,08,12,12,53,22.20
2019,08,12,12,54,22.30
2019,08,12,12,55,22.30
2019,08,12,12,56,22.50
2019,08,12,12,57,22.60
2019,08,12,12,58,22.60
2019,08,12,12,59,22.60
2019,08,12,13,00,22.50
2019,08,12,13,01,22.50
2019,08,12,13,02,22.50
2019,08,12,13,03,22.50
2019,08,12,13,04,22.40
2019,08,12,13,05,22.30
2019,08,12,13,06,22.30
2019,08,12,13,07,22.30
2019,08,12,13,08,22.20
2019,08,12,13,09,22.20
2019,08,12,13,10,22.20
2019,08,12,13,11,22.20
2019,08,12,13,12,22.20
2019,08,12,13,13,22.20
2019,08,12,13,14,22.30
2019,08,12,13,15,22.30
2019,08,12,13,16,22.20
2019,08,12,13,17,22.20
2019,08,12,13,18,22.10
2019,08,12,13,19,22.20
2019,08,12,13,20,22.30
2019,08,12,13,21,22.30
2019,08,12,13,22,22.40
2019,08,12,13,23,22.30
2019,08,12,13,24,22.30
2019,08,12,13,25,22.30
2019,08,12,13,26,22.30
2019,08,12,13,27,22.30
2019,08,12,13,28,22.30
2019,08,12,13,29,22.30
2019,08,12,13,30,22.30
2019,08,12,13,31,22.30
2019,08,12,13,32,22.30
2019,08,12,13,33,22.40
2019,08,12,13,34,22.40
2019,08,12,13,35,22.40
2019,08,12,13,36,22.40
2019,08,12,13,37,22.50
2019,08,12,13,38,22.60
2019,08,12,13,39,22.70
2019,08,12,13,40,22.70
2019,08,12,13,41,22.60
2019,08,12,13,42,22.60
2019,08,12,13,43,22.70
2019,08,12,13,44,22.70
2019,08,12,13,45,22.70
2019,08,12,13,46,22.70
2019,08,12,13,47,22.60
2019,08,12,13,48,22.60
2019,08,12,13,49,22.60
2019,08,12,13,50,22.50
2019,08,12,13,51,22.50
2019,08,12,13,52,22.60
2019,08,12,13,53,22.60
2019,08,12,13,54,22.60
2019,08,12,13,55,22.60
2019,08,12,13,56,22.60
2019,08,12,13,57,22.50
2019,08,12,13,58,22.60
2019,08,12,13,59,22.60
2019,08,12,14,00,22.60
2019,08,12,14,01,22.60
2019,08,12,14,02,22.60
2019,08,12,14,03,22.60
2019,08,12,14,04,22.60
2019,08,12,14,05,22.60
2019,08,12,14,06,22.60
2019,08,12,14,07,22.60
2019,08,12,14,08,22.50
2019,08,12,14,09,22.50
2019,08,12,14,10,22.60
2019,08,12,14,11,22.60
2019,08,12,14,12,22.60
2019,08,12,14,13,22.60
2019,08,12,14,14,22.60
2019,08,12,14,15,22.60
2019,08,12,14,16,22.60
2019,08,12,14,17,22.70
2019,08,12,14,18,22.70
2019,08,12,14,19,22.70
2019,08,12,14,20,22.80
2019,08,12,14,21,22.80
2019,08,12,14,22,22.80
2019,08,12,14,23,22.80
2019,08,12,14,24,22.80
2019,08,12,14,25,22.80
2019,08,12,14,26,22.80
2019,08,12,14,27,22.80
2019,08,12,14,28,22.70
2019,08,12,14,29,22.70
2019,08,12,14,30,22.70
2019,08,12,14,31,22.80
2019,08,12,14,32,22.80
2019,08,12,14,33,22.90
2019,08,12,14,34,22.90
2019,08,12,14,35,22.90
2019,08,12,14,36,22.90
2019,08,12,14,37,22.90
2019,08,12,14,38,23.00
2019,08,12,14,39,23.00
2019,08,12,14,40,23.10
2019,08,12,14,41,23.00
2019,08,12,14,42,23.00
2019,08,12,14,43,23.00
2019,08,12,14,44,23.10
2019,08,12,14,45,23.10
2019,08,12,14,46,23.20
2019,08,12,14,47,23.10
2019,08,12,14,48,23.00
2019,08,12,14,49,23.00
2019,08,12,14,50,23.00
2019,08,12,14,51,22.90
2019,08,12,14,52,22.90
2019,08,12,14,53,22.90
2019,08,12,14,54,22.80
2019,08,12,14,55,22.80
2019,08,12,14,56,22.70
2019,08,12,14,57,22.70
2019,08,12,14,58,22.70
2019,08,12,14,59,22.60
2019,08,12,15,00,22.60
2019,08,12,15,01,22.70
2019,08,12,15,02,22.70
2019,08,12,15,03,22.60
2019,08,12,15,04,22.60
2019,08,12,15,05,22.70
2019,08,12,15,06,22.70
2019,08,12,15,07,22.80
2019,08,12,15,08,22.80
2019,08,12,15,09,22.90
2019,08,12,15,10,23.00
2019,08,12,15,11,23.10
2019,08,12,15,12,23.10
2019,08,12,15,13,23.10
2019,08,12,15,14,23.10
2019,08,12,15,15,23.10
2019,08,12,15,16,23.10
2019,08,12,15,17,23.10
2019,08,12,15,18,23.20
2019,08,12,15,19,23.30
2019,08,12,15,20,23.30
2019,08,12,15,21,23.30
2019,08,12,15,22,23.20
2019,08,12,15,23,23.10
2019,08,12,15,24,23.10
2019,08,12,15,25,23.10
2019,08,12,15,26,23.10
2019,08,12,15,27,23.20
2019,08,12,15,28,23.20
2019,08,12,15,29,23.20
2019,08,12,15,30,23.20
2019,08,12,15,31,23.20
2019,08,12,15,32,23.10
2019,08,12,15,33,23.00
2019,08,12,15,34,23.00
2019,08,12,15,35,22.90
2019,08,12,15,36,22.90
2019,08,12,15,37,22.90
2019,08,12,15,38,23.00
2019,08,12,15,39,23.00
2019,08,12,15,40,23.10
2019,08,12,15,41,23.20
2019,08,12,15,42,23.30
2019,08,12,15,43,23.40
2019,08,12,15,44,23.50
2019,08,12,15,45,23.50
2019,08,12,15,46,23.60
2019,08,12,15,47,23.70
2019,08,12,15,48,23.70
2019,08,12,15,49,23.60
2019,08,12,15,50,23.50
2019,08,12,15,51,23.50
2019,08,12,15,52,23.40
2019,08,12,15,53,23.30
2019,08,12,15,54,23.30
2019,08,12,15,55,23.30
2019,08,12,15,56,23.20
2019,08,12,15,57,23.20
2019,08,12,15,58,23.20
2019,08,12,15,59,23.10
2019,08,12,16,00,23.10
2019,08,12,16,01,23.10
2019,08,12,16,02,23.10
2019,08,12,16,03,23.10
2019,08,12,16,04,23.10
2019,08,12,16,05,23.10
2019,08,12,16,06,23.10
2019,08,12,16,07,23.10
2019,08,12,16,08,23.10
2019,08,12,16,09,23.10
2019,08,12,16,10,23.10
2019,08,12,16,11,23.20
2019,08,12,16,12,23.20
2019,08,12,16,13,23.20
2019,08,12,16,14,23.20
2019,08,12,16,15,23.20
2019,08,12,16,16,23.20
2019,08,12,16,17,23.30
2019,08,12,16,18,23.30
2019,08,12,16,19,23.40
2019,08,12,16,20,23.40
2019,08,12,16,21,23.40
2019,08,12,16,22,23.40
2019,08,12,16,23,23.40
2019,08,12,16,24,23.40
2019,08,12,16,25,23.40
2019,08,12,16,26,23.40
2019,08,12,16,27,23.40
2019,08,12,16,28,23.40
2019,08,12,16,29,23.40
2019,08,12,16,30,23.40
2019,08,12,16,31,23.40
2019,08,12,16,32,23.50
2019,08,12,16,33,23.40
2019,08,12,16,34,23.40
2019,08,12,16,35,23.40
2019,08,12,16,36,23.40
2019,08,12,16,37,23.40
2019,08,12,16,38,23.40
2019,08,12,16,39,23.40
2019,08,12,16,40,23.50
2019,08,12,16,41,23.50
2019,08,12,16,42,23.50
2019,08,12,16,43,23.50
2019,08,12,16,44,23.40
2019,08,12,16,45,23.40
2019,08,12,16,46,23.40
2019,08,12,16,47,23.40
2019,08,12,16,48,23.40
2019,08,12,16,49,23.40
2019,08,12,16,50,23.40
2019,08,12,16,51,23.40
2019,08,12,16,52,23.40
2019,08,12,16,53,23.40
2019,08,12,16,54,23.40
2019,08,12,16,55,23.50
2019,08,12,16,56,23.60
2019,08,12,16,57,23.60
2019,08,12,16,58,23.60
2019,08,12,16,59,23.70
2019,08,12,17,00,23.70
2019,08,12,17,01,23.70
2019,08,12,17,02,23.70
2019,08,12,17,03,23.70
2019,08,12,17,04,23.50
2019,08,12,17,05,23.40
2019,08,12,17,06,23.30
2019,08,12,17,07,23.30
2019,08,12,17,08,23.20
2019,08,12,17,09,23.30
2019,08,12,17,10,23.30
2019,08,12,17,11,23.30
2019,08,12,17,12,23.30
2019,08,12,17,13,23.30
2019,08,12,17,14,23.30
2019,08,12,17,15,23.30
2019,08,12,17,16,23.30
2019,08,12,17,17,23.30
2019,08,12,17,18,23.30
2019,08,12,17,19,23.30
2019,08,12,17,20,23.30
2019,08,12,17,21,23.20
2019,08,12,17,22,23.20
2019,08,12,17,23,23.30
2019,08,12,17,24,23.30
2019,08,12,17,25,23.30
2019,08,12,17,26,23.30
2019,08,12,17,27,23.30
2019,08,12,17,28,23.30
2019,08,12,17,29,23.30
2019,08,12,17,30,23.30
2019,08,12,17,31,23.30
2019,08,12,17,32,23.20
2019,08,12,17,33,23.20
2019,08,12,17,34,23.20
2019,08,12,17,35,23.30
2019,08,12,17,36,23.40
2019,08,12,17,37,23.40
2019,08,12,17,38,23.40
2019,08,12,17,39,23.40
2019,08,12,17,40,23.40
2019,08,12,17,41,23.40
2019,08,12,17,42,23.40
2019,08,12,17,43,23.40
2019,08,12,17,44,23.40
2019,08,12,17,45,23.40
2019,08,12,17,46,23.40
2019,08,12,17,47,23.40
2019,08,12,17,48,23.40
2019,08,12,17,49,23.50
2019,08,12,17,50,23.60
2019,08,12,17,51,23.70
2019,08,12,17,52,23.80
2019,08,12,17,53,23.80
2019,08,12,17,54,23.80
2019,08,12,17,55,23.80
2019,08,12,17,56,23.80
2019,08,12,17,57,23.80
2019,08,12,17,58,23.80
2019,08,12,17,59,23.80
2019,08,12,18,00,23.70
2019,08,12,18,01,23.60
2019,08,12,18,02,23.50
2019,08,12,18,03,23.40
2019,08,12,18,04,23.30
2019,08,12,18,05,23.30
2019,08,12,18,06,23.30
2019,08,12,18,07,23.20
2019,08,12,18,08,23.10
2019,08,12,18,09,23.10
2019,08,12,18,10,23.00
2019,08,12,18,11,23.00
2019,08,12,18,12,22.90
2019,08,12,18,13,22.90
2019,08,12,18,14,22.80
2019,08,12,18,15,22.80
2019,08,12,18,16,22.70
2019,08,12,18,17,22.60
2019,08,12,18,18,22.60
2019,08,12,18,19,22.50
2019,08,12,18,20,22.40
2019,08,12,18,21,22.40
2019,08,12,18,22,22.30
2019,08,12,18,23,22.20
2019,08,12,18,24,22.20
2019,08,12,18,25,22.10
2019,08,12,18,26,22.10